Overview Statistics Trail Chart Weather Telemetry Raw packets
 

This is the latest recevied weather packets stored in our database for station/object KD7AWQ. If no packets are shown the sender has not sent any weather packets the latest 10 day(s).

<< 11 12 13 14 15 16 17 >>
Time Temp. Humidity Pressure Rain* Wind** Luminosity Snow
1788371946 32.22° C 34% 1189.8 hPa 0 mm - 1033 W/m² -
1788371641 31.67° C 34% 1189.9 hPa 0 mm - 1040 W/m² -
1788371336 31.11° C 36% 1190 hPa 0 mm - 987 W/m² -
1788371033 30.56° C 37% 1190.1 hPa 0 mm - 947 W/m² -
1788370729 30° C 38% 1190.1 hPa 0 mm - 939 W/m² -
1788370428 30° C 37% 1190.1 hPa 0 mm - 914 W/m² -
1788370123 30° C 39% 1190.1 hPa 0 mm - 884 W/m² -
1788369822 29.44° C 40% 1190.3 hPa 0 mm - 865 W/m² -
1788369517 29.44° C 39% 1190.4 hPa 0 mm - 852 W/m² -
1788369213 29.44° C 40% 1190.4 hPa 0 mm - 831 W/m² -
1788368909 28.89° C 40% 1190.3 hPa 0 mm - 819 W/m² -
1788368604 29.44° C 40% 1190.3 hPa 0 mm - 803 W/m² -
1788368300 29.44° C 40% 1190.6 hPa 0 mm - 784 W/m² -
1788367999 29.44° C 39% 1190.7 hPa 0 mm - 771 W/m² -
1788367707 28.89° C 41% 1190.4 hPa 0 mm - 754 W/m² -
1788367389 29.44° C 40% 1190.6 hPa 0 mm - 739 W/m² -
1788367088 28.33° C 42% 1190.4 hPa 0 mm - 721 W/m² -
1788366783 28.33° C 43% 1190.4 hPa 0 mm - 703 W/m² -
1788366482 28.33° C 43% 1190.6 hPa 0 mm - 686 W/m² -
1788366177 28.33° C 41% 1190.4 hPa 0 mm - 666 W/m² -
1788365876 27.78° C 42% 1190.4 hPa 0 mm - 650 W/m² -
1788365572 28.33° C 40% 1190.6 hPa 0 mm - 626 W/m² -
1788365268 28.33° C 40% 1190.5 hPa 0 mm - 608 W/m² -
1788364963 28.33° C 41% 1190.5 hPa 0 mm - 589 W/m² -
1788364661 28.33° C 41% 1190.4 hPa 0 mm - 474 W/m² -

* Rain latest hour (hover to see other rain measurements)
** Current wind speed in m/s (hover to see current wind gust speed)